Time,TemperatureF,DewpointF,PressureIn,WindDirection,WindDirectionDegrees,WindSpeedMPH,WindSpeedGustMPH,Humidity,HourlyPrecipIn,Conditions,Clouds,dailyrainin,SoftwareType,DateUTC
2013-03-06 00:02:00,19.0,-99.9,-100.00,NW,313,0.0,-999.0,-999,-99.99,,,-99.99,,2013-03-06 06:02:00,
2013-03-06 00:12:00,19.0,-99.9,-100.00,North,0,0.0,-999.0,-999,-99.99,,,-99.99,,2013-03-06 06:12:00,
2013-03-06 00:22:00,19.0,-99.9,-100.00,WNW,300,3.0,-999.0,-999,-99.99,,,-99.99,,2013-03-06 06:22:00,
2013-03-06 00:32:00,19.0,-99.9,-100.00,NNW,332,0.0,-999.0,-999,-99.99,,,-99.99,,2013-03-06 06:32:00,
2013-03-06 00:42:00,19.0,-99.9,-100.00,NNW,332,0.0,-999.0,-999,-99.99,,,-99.99,,2013-03-06 06:42:00,
2013-03-06 00:52:00,19.0,-99.9,-100.00,NW,324,3.0,-999.0,-999,-99.99,,,-99.99,,2013-03-06 06:52:00,
2013-03-06 01:02:00,19.0,-99.9,-100.00,NW,324,3.0,-999.0,-999,-99.99,,,-99.99,,2013-03-06 07:02:00,
2013-03-06 01:11:00,19.0,-99.9,-100.00,NW,318,1.0,-999.0,-999,-99.99,,,-99.99,,2013-03-06 07:11:00,
2013-03-06 01:22:00,19.0,-99.9,-100.00,NNW,337,2.0,-999.0,-999,-99.99,,,-99.99,,2013-03-06 07:22:00,
2013-03-06 01:32:00,19.0,-99.9,-100.00,North,-999,0.0,-999.0,-999,-99.99,,,-99.99,,2013-03-06 07:32:00,
2013-03-06 01:42:00,19.0,-99.9,-100.00,NNW,335,0.0,-999.0,-999,-99.99,,,-99.99,,2013-03-06 07:42:00,
2013-03-06 01:52:00,19.0,-99.9,-100.00,NW,320,3.0,-999.0,-999,-99.99,,,-99.99,,2013-03-06 07:52:00,
2013-03-06 02:01:00,19.0,-99.9,-100.00,NNW,343,0.0,-999.0,-999,-99.99,,,-99.99,,2013-03-06 08:01:00,
2013-03-06 02:11:00,18.0,-99.9,-100.00,NNW,334,0.0,-999.0,-999,-99.99,,,-99.99,,2013-03-06 08:11:00,
2013-03-06 02:22:00,19.0,-99.9,-100.00,North,-999,1.0,-999.0,-999,-99.99,,,-99.99,,2013-03-06 08:22:00,
2013-03-06 02:32:00,19.0,-99.9,-100.00,NNW,343,1.0,-999.0,-999,-99.99,,,-99.99,,2013-03-06 08:32:00,
2013-03-06 02:42:00,19.0,-99.9,-100.00,North,-999,1.0,-999.0,-999,-99.99,,,-99.99,,2013-03-06 08:42:00,
2013-03-06 02:52:00,19.0,-99.9,-100.00,North,0,0.0,-999.0,-999,-99.99,,,-99.99,,2013-03-06 08:52:00,
2013-03-06 03:02:00,19.0,-99.9,-100.00,North,0,0.0,-999.0,-999,-99.99,,,-99.99,,2013-03-06 09:02:00,
2013-03-06 03:12:00,18.0,-99.9,-100.00,NNW,333,1.0,-999.0,-999,-99.99,,,-99.99,,2013-03-06 09:12:00,
2013-03-06 03:22:00,18.0,-99.9,-100.00,North,-999,0.0,-999.0,-999,-99.99,,,-99.99,,2013-03-06 09:22:00,
2013-03-06 03:32:00,18.0,-99.9,-100.00,North,0,0.0,-999.0,-999,-99.99,,,-99.99,,2013-03-06 09:32:00,
2013-03-06 03:42:00,18.0,-99.9,-100.00,North,0,0.0,-999.0,-999,-99.99,,,-99.99,,2013-03-06 09:42:00,
2013-03-06 03:52:00,18.0,-99.9,-100.00,West,260,0.0,-999.0,-999,-99.99,,,-99.99,,2013-03-06 09:52:00,
2013-03-06 04:02:00,18.0,-99.9,-100.00,North,0,0.0,-999.0,-999,-99.99,,,-99.99,,2013-03-06 10:02:00,
2013-03-06 04:12:00,18.0,-99.9,-100.00,North,0,0.0,-999.0,-999,-99.99,,,-99.99,,2013-03-06 10:12:00,
2013-03-06 04:22:00,18.0,-99.9,-100.00,North,0,0.0,-999.0,-999,-99.99,,,-99.99,,2013-03-06 10:22:00,
2013-03-06 04:32:00,18.0,-99.9,-100.00,NNE,12,0.0,-999.0,-999,-99.99,,,-99.99,,2013-03-06 10:32:00,
2013-03-06 04:52:00,18.0,-99.9,-100.00,North,-999,0.0,-999.0,-999,-99.99,,,-99.99,,2013-03-06 10:52:00,
2013-03-06 05:02:00,18.0,-99.9,-100.00,North,-999,0.0,-999.0,-999,-99.99,,,-99.99,,2013-03-06 11:02:00,
2013-03-06 05:12:00,18.0,-99.9,-100.00,North,0,0.0,-999.0,-999,-99.99,,,-99.99,,2013-03-06 11:12:00,
2013-03-06 05:23:00,18.0,-99.9,-100.00,North,0,0.0,-999.0,-999,-99.99,,,-99.99,,2013-03-06 11:23:00,
2013-03-06 05:32:00,18.0,-99.9,-100.00,North,-999,0.0,-999.0,-999,-99.99,,,-99.99,,2013-03-06 11:32:00,
2013-03-06 05:42:00,18.0,18.0,-100.00,North,0,0.0,-999.0,99,-99.99,,,-99.99,,2013-03-06 11:42:00,
2013-03-06 05:53:00,18.0,-99.9,-100.00,North,0,0.0,-999.0,-999,-99.99,,,-99.99,,2013-03-06 11:53:00,
2013-03-06 06:02:00,18.0,-99.9,-100.00,North,0,0.0,-999.0,-999,-99.99,,,-99.99,,2013-03-06 12:02:00,
2013-03-06 06:12:00,18.0,-99.9,-100.00,North,0,0.0,-999.0,-999,-99.99,,,-99.99,,2013-03-06 12:12:00,
2013-03-06 06:22:00,18.0,17.0,-100.00,North,0,0.0,-999.0,99,-99.99,,,-99.99,,2013-03-06 12:22:00,
2013-03-06 06:33:00,17.0,17.0,-100.00,North,0,0.0,-999.0,99,-99.99,,,-99.99,,2013-03-06 12:33:00,
2013-03-06 06:43:00,18.0,-99.9,-100.00,North,-999,0.0,-999.0,-999,-99.99,,,-99.99,,2013-03-06 12:43:00,
2013-03-06 06:52:00,17.0,17.0,-100.00,North,0,0.0,-999.0,99,-99.99,,,-99.99,,2013-03-06 12:52:00,
2013-03-06 07:02:00,17.0,-99.9,-100.00,North,0,0.0,-999.0,-999,-99.99,,,-99.99,,2013-03-06 13:02:00,
2013-03-06 07:12:00,18.0,-99.9,-100.00,North,0,0.0,-999.0,-999,-99.99,,,-99.99,,2013-03-06 13:12:00,
2013-03-06 07:22:00,17.0,-99.9,-100.00,North,0,0.0,-999.0,-999,-99.99,,,-99.99,,2013-03-06 13:22:00,
2013-03-06 07:32:00,18.0,17.0,-100.00,North,0,0.0,-999.0,99,-99.99,,,-99.99,,2013-03-06 13:32:00,
2013-03-06 07:42:00,17.0,-99.9,-100.00,North,0,0.0,-999.0,-999,-99.99,,,-99.99,,2013-03-06 13:42:00,
2013-03-06 07:52:00,17.0,-99.9,-100.00,North,0,0.0,-999.0,-999,-99.99,,,-99.99,,2013-03-06 13:52:00,
2013-03-06 08:02:00,18.0,-99.9,-100.00,North,0,0.0,-999.0,-999,-99.99,,,-99.99,,2013-03-06 14:02:00,
2013-03-06 08:12:00,17.0,-99.9,-100.00,North,0,0.0,-999.0,-999,-99.99,,,-99.99,,2013-03-06 14:12:00,
2013-03-06 08:22:00,17.0,-99.9,-100.00,North,0,0.0,-999.0,-999,-99.99,,,-99.99,,2013-03-06 14:22:00,
2013-03-06 08:32:00,18.0,-99.9,-100.00,North,0,0.0,-999.0,-999,-99.99,,,-99.99,,2013-03-06 14:32:00,
2013-03-06 08:42:00,18.0,-99.9,-100.00,North,-999,0.0,-999.0,-999,-99.99,,,-99.99,,2013-03-06 14:42:00,
2013-03-06 08:52:00,18.0,17.0,-100.00,North,0,0.0,-999.0,99,-99.99,,,-99.99,,2013-03-06 14:52:00,
2013-03-06 09:02:00,18.0,-99.9,-100.00,NE,37,0.0,-999.0,-999,-99.99,,,-99.99,,2013-03-06 15:02:00,
2013-03-06 09:12:00,18.0,-99.9,-100.00,North,0,0.0,-999.0,-999,-99.99,,,-99.99,,2013-03-06 15:12:00,
2013-03-06 09:22:00,18.0,-99.9,-100.00,North,-999,0.0,-999.0,-999,-99.99,,,-99.99,,2013-03-06 15:22:00,
2013-03-06 09:32:00,18.0,18.0,-100.00,North,0,0.0,-999.0,99,-99.99,,,-99.99,,2013-03-06 15:32:00,
2013-03-06 09:42:00,18.0,18.0,-100.00,North,0,0.0,-999.0,99,-99.99,,,-99.99,,2013-03-06 15:42:00,
2013-03-06 09:52:00,18.0,18.0,-100.00,North,0,0.0,-999.0,99,-99.99,,,-99.99,,2013-03-06 15:52:00,
2013-03-06 10:02:00,19.0,-99.9,-100.00,North,0,0.0,-999.0,-999,-99.99,,,-99.99,,2013-03-06 16:02:00,
2013-03-06 10:11:00,19.0,19.0,-100.00,North,0,0.0,-999.0,99,-99.99,,,-99.99,,2013-03-06 16:11:00,
2013-03-06 10:22:00,19.0,-99.9,-100.00,North,0,0.0,-999.0,-999,-99.99,,,-99.99,,2013-03-06 16:22:00,
2013-03-06 10:32:00,19.0,19.0,-100.00,North,0,0.0,-999.0,99,-99.99,,,-99.99,,2013-03-06 16:32:00,
2013-03-06 10:42:00,20.0,20.0,-100.00,North,0,0.0,-999.0,99,-99.99,,,-99.99,,2013-03-06 16:42:00,
2013-03-06 10:52:00,20.0,20.0,-100.00,North,0,0.0,-999.0,99,-99.99,,,-99.99,,2013-03-06 16:52:00,
2013-03-06 11:01:00,21.0,21.0,-100.00,North,0,0.0,-999.0,99,-99.99,,,-99.99,,2013-03-06 17:01:00,
2013-03-06 11:11:00,22.0,21.0,-100.00,North,0,0.0,-999.0,98,-99.99,,,-99.99,,2013-03-06 17:11:00,
2013-03-06 11:22:00,20.0,20.0,-100.00,North,0,0.0,-999.0,99,-99.99,,,-99.99,,2013-03-06 17:22:00,
2013-03-06 11:32:00,20.0,20.0,-100.00,North,0,0.0,-999.0,99,-99.99,,,-99.99,,2013-03-06 17:32:00,
2013-03-06 11:42:00,21.0,21.0,-100.00,North,0,0.0,-999.0,99,-99.99,,,-99.99,,2013-03-06 17:42:00,
2013-03-06 11:52:00,22.0,21.0,-100.00,North,0,0.0,-999.0,98,-99.99,,,-99.99,,2013-03-06 17:52:00,
2013-03-06 12:02:00,22.0,21.0,-100.00,North,0,0.0,-999.0,98,-99.99,,,-99.99,,2013-03-06 18:02:00,
2013-03-06 12:28:00,23.0,22.0,-100.00,North,0,0.0,-999.0,96,-99.99,,,-99.99,,2013-03-06 18:28:00,
2013-03-06 12:42:00,23.0,22.0,-100.00,North,0,0.0,-999.0,95,-99.99,,,-99.99,,2013-03-06 18:42:00,
2013-03-06 12:52:00,24.0,24.0,-100.00,North,0,0.0,-999.0,98,-99.99,,,-99.99,,2013-03-06 18:52:00,
2013-03-06 13:02:00,23.0,22.0,-100.00,SW,223,1.0,-999.0,98,-99.99,,,-99.99,,2013-03-06 19:02:00,
2013-03-06 13:11:00,23.0,23.0,-100.00,North,0,0.0,-999.0,98,-99.99,,,-99.99,,2013-03-06 19:11:00,
2013-03-06 13:22:00,24.0,24.0,-100.00,North,0,0.0,-999.0,98,-99.99,,,-99.99,,2013-03-06 19:22:00,
2013-03-06 13:32:00,24.0,23.0,-100.00,North,0,0.0,-999.0,98,-99.99,,,-99.99,,2013-03-06 19:32:00,
2013-03-06 13:43:00,25.0,25.0,-100.00,North,0,0.0,-999.0,98,-99.99,,,-99.99,,2013-03-06 19:43:00,
2013-03-06 13:52:00,25.0,24.0,-100.00,North,0,0.0,-999.0,97,-99.99,,,-99.99,,2013-03-06 19:52:00,
2013-03-06 14:02:00,26.0,24.0,-100.00,North,0,0.0,-999.0,91,-99.99,,,-99.99,,2013-03-06 20:02:00,
2013-03-06 14:12:00,26.0,24.0,-100.00,North,0,0.0,-999.0,89,-99.99,,,-99.99,,2013-03-06 20:12:00,
2013-03-06 14:22:00,27.0,24.0,-100.00,North,0,0.0,-999.0,87,-99.99,,,-99.99,,2013-03-06 20:22:00,
2013-03-06 14:32:00,27.0,23.0,-100.00,North,0,0.0,-999.0,86,-99.99,,,-99.99,,2013-03-06 20:32:00,
2013-03-06 14:42:00,26.0,23.0,-100.00,North,0,0.0,-999.0,89,-99.99,,,-99.99,,2013-03-06 20:42:00,
2013-03-06 14:52:00,27.0,23.0,-100.00,North,0,0.0,-999.0,84,-99.99,,,-99.99,,2013-03-06 20:52:00,
2013-03-06 15:02:00,28.0,24.0,-100.00,North,0,0.0,-999.0,84,-99.99,,,-99.99,,2013-03-06 21:02:00,
2013-03-06 15:12:00,28.0,24.0,-100.00,North,0,0.0,-999.0,82,-99.99,,,-99.99,,2013-03-06 21:12:00,
2013-03-06 15:22:00,28.0,24.0,-100.00,North,0,0.0,-999.0,83,-99.99,,,-99.99,,2013-03-06 21:22:00,
2013-03-06 15:32:00,29.0,24.0,-100.00,North,0,0.0,-999.0,83,-99.99,,,-99.99,,2013-03-06 21:32:00,
2013-03-06 15:42:00,29.0,24.0,-100.00,North,0,0.0,-999.0,80,-99.99,,,-99.99,,2013-03-06 21:42:00,
2013-03-06 15:51:00,29.0,24.0,-100.00,North,0,0.0,-999.0,79,-99.99,,,-99.99,,2013-03-06 21:51:00,
2013-03-06 16:01:00,30.0,24.0,-100.00,North,0,0.0,-999.0,78,-99.99,,,-99.99,,2013-03-06 22:01:00,
2013-03-06 16:11:00,29.0,23.0,-100.00,North,0,0.0,-999.0,77,-99.99,,,-99.99,,2013-03-06 22:11:00,
2013-03-06 16:22:00,29.0,24.0,-100.00,North,0,0.0,-999.0,80,-99.99,,,-99.99,,2013-03-06 22:22:00,
2013-03-06 16:32:00,29.0,24.0,-100.00,North,0,0.0,-999.0,79,-99.99,,,-99.99,,2013-03-06 22:32:00,
2013-03-06 16:42:00,30.0,24.0,-100.00,SE,132,1.0,-999.0,79,-99.99,,,-99.99,,2013-03-06 22:42:00,
2013-03-06 16:51:00,30.0,24.0,-100.00,North,0,0.0,-999.0,77,-99.99,,,-99.99,,2013-03-06 22:51:00,
2013-03-06 17:01:00,31.0,24.0,-100.00,North,0,0.0,-999.0,76,-99.99,,,-99.99,,2013-03-06 23:01:00,
2013-03-06 17:11:00,31.0,24.0,-100.00,North,0,0.0,-999.0,76,-99.99,,,-99.99,,2013-03-06 23:11:00,
2013-03-06 17:21:00,31.0,24.0,-100.00,North,0,0.0,-999.0,77,-99.99,,,-99.99,,2013-03-06 23:21:00,
2013-03-06 17:32:00,31.0,24.0,-100.00,North,0,0.0,-999.0,77,-99.99,,,-99.99,,2013-03-06 23:32:00,
2013-03-06 17:42:00,31.0,24.0,-100.00,North,0,0.0,-999.0,77,-99.99,,,-99.99,,2013-03-06 23:42:00,
2013-03-06 17:52:00,31.0,26.0,-100.00,North,0,0.0,-999.0,81,-99.99,,,-99.99,,2013-03-06 23:52:00,
2013-03-06 18:01:00,31.0,26.0,-100.00,North,0,0.0,-999.0,82,-99.99,,,-99.99,,2013-03-07 00:01:00,
2013-03-06 18:11:00,31.0,25.0,-100.00,North,0,0.0,-999.0,80,-99.99,,,-99.99,,2013-03-07 00:11:00,
2013-03-06 18:21:00,30.0,26.0,-100.00,North,0,0.0,-999.0,83,-99.99,,,-99.99,,2013-03-07 00:21:00,
2013-03-06 18:32:00,30.0,25.0,-100.00,North,0,0.0,-999.0,84,-99.99,,,-99.99,,2013-03-07 00:32:00,
2013-03-06 18:42:00,30.0,25.0,-100.00,North,0,0.0,-999.0,84,-99.99,,,-99.99,,2013-03-07 00:42:00,
2013-03-06 18:52:00,29.0,26.0,-100.00,North,0,0.0,-999.0,87,-99.99,,,-99.99,,2013-03-07 00:52:00,
2013-03-06 19:01:00,29.0,27.0,-100.00,North,0,0.0,-999.0,90,-99.99,,,-99.99,,2013-03-07 01:01:00,
2013-03-06 19:11:00,29.0,27.0,-100.00,North,0,0.0,-999.0,91,-99.99,,,-99.99,,2013-03-07 01:11:00,
2013-03-06 19:21:00,29.0,27.0,-100.00,North,0,0.0,-999.0,92,-99.99,,,-99.99,,2013-03-07 01:21:00,
2013-03-06 19:32:00,28.0,27.0,-100.00,North,0,0.0,-999.0,94,-99.99,,,-99.99,,2013-03-07 01:32:00,
2013-03-06 19:42:00,28.0,27.0,-100.00,North,0,0.0,-999.0,96,-99.99,,,-99.99,,2013-03-07 01:42:00,
2013-03-06 19:51:00,28.0,27.0,-100.00,ESE,123,1.0,-999.0,98,-99.99,,,-99.99,,2013-03-07 01:51:00,
2013-03-06 20:01:00,27.0,27.0,-100.00,ESE,119,2.0,-999.0,98,-99.99,,,-99.99,,2013-03-07 02:01:00,
2013-03-06 20:11:00,27.0,-99.9,-100.00,ESE,123,0.0,-999.0,-999,-99.99,,,-99.99,,2013-03-07 02:11:00,
2013-03-06 20:22:00,27.0,-99.9,-100.00,ESE,111,1.0,-999.0,-999,-99.99,,,-99.99,,2013-03-07 02:22:00,
2013-03-06 20:32:00,27.0,-99.9,-100.00,ESE,119,1.0,-999.0,-999,-99.99,,,-99.99,,2013-03-07 02:32:00,
2013-03-06 20:42:00,27.0,-99.9,-100.00,ESE,119,1.0,-999.0,-999,-99.99,,,-99.99,,2013-03-07 02:42:00,
2013-03-06 20:52:00,27.0,-99.9,-100.00,ESE,119,1.0,-999.0,-999,-99.99,,,-99.99,,2013-03-07 02:52:00,
2013-03-06 21:02:00,26.0,-99.9,-100.00,ESE,117,0.0,-999.0,-999,-99.99,,,-99.99,,2013-03-07 03:02:00,
2013-03-06 21:12:00,26.0,-99.9,-100.00,SE,127,2.0,-999.0,-999,-99.99,,,-99.99,,2013-03-07 03:12:00,
2013-03-06 21:22:00,25.0,-99.9,-100.00,SE,128,1.0,-999.0,-999,-99.99,,,-99.99,,2013-03-07 03:22:00,
2013-03-06 21:32:00,25.0,-99.9,-100.00,SE,142,0.0,-999.0,-999,-99.99,,,-99.99,,2013-03-07 03:32:00,
2013-03-06 21:42:00,25.0,-99.9,-100.00,SE,128,1.0,-999.0,-999,-99.99,,,-99.99,,2013-03-07 03:42:00,
2013-03-06 21:52:00,24.0,-99.9,-100.00,ESE,123,0.0,-999.0,-999,-99.99,,,-99.99,,2013-03-07 03:52:00,
2013-03-06 22:02:00,24.0,-99.9,-100.00,ESE,122,1.0,-999.0,-999,-99.99,,,-99.99,,2013-03-07 04:02:00,
2013-03-06 22:12:00,24.0,-99.9,-100.00,ESE,122,1.0,-999.0,-999,-99.99,,,-99.99,,2013-03-07 04:12:00,
2013-03-06 22:22:00,24.0,-99.9,-100.00,East,101,0.0,-999.0,-999,-99.99,,,-99.99,,2013-03-07 04:22:00,
2013-03-06 22:32:00,24.0,-99.9,-100.00,ESE,113,1.0,-999.0,-999,-99.99,,,-99.99,,2013-03-07 04:32:00,
2013-03-06 22:42:00,24.0,-99.9,-100.00,ESE,109,2.0,-999.0,-999,-99.99,,,-99.99,,2013-03-07 04:42:00,
2013-03-06 22:52:00,23.0,-99.9,-100.00,ESE,111,2.0,-999.0,-999,-99.99,,,-99.99,,2013-03-07 04:52:00,
2013-03-06 23:03:00,23.0,-99.9,-100.00,ESE,118,1.0,-999.0,-999,-99.99,,,-99.99,,2013-03-07 05:03:00,
2013-03-06 23:12:00,23.0,-99.9,-100.00,ESE,117,1.0,-999.0,-999,-99.99,,,-99.99,,2013-03-07 05:12:00,
2013-03-06 23:23:00,23.0,-99.9,-100.00,SE,129,2.0,-999.0,-999,-99.99,,,-99.99,,2013-03-07 05:23:00,
2013-03-06 23:32:00,23.0,-99.9,-100.00,ESE,120,3.0,-999.0,-999,-99.99,,,-99.99,,2013-03-07 05:32:00,
2013-03-06 23:42:00,23.0,-99.9,-100.00,ESE,120,3.0,-999.0,-999,-99.99,,,-99.99,,2013-03-07 05:42:00,
2013-03-06 23:53:00,23.0,-99.9,-100.00,SE,131,1.0,-999.0,-999,-99.99,,,-99.99,,2013-03-07 05:53:00,